sat.trackr.live / text

‹ back to catalog

STARLINK-34664

NORAD 64806 · 2025-150S

PAYLOAD ACTIVE UNKNOWN

§ Identity

Operator
Country
US
Launch date
2025-07-16
Launch site
AFWTR
Launch vehicle
Mass (kg)
RCS (m²)

Purposes: comms

External: N2YO · Heavens-Above · Gunter

§ Orbital elements

Epoch: 2026-05-25T03:27:13.944960Z

Period
96.11 min
Inclination
70.0001°
Eccentricity
0.0002598
Mean motion
14.98338747 rev/d
Perigee alt
570.2 km
Apogee alt
573.8 km
Semi-major
6,950.2 km
B*
9.9042e-5
RAAN
301.4937°
Arg perigee
275.1947°
Mean anomaly
84.8915°
Rev number
4,797

§ Raw data

STARLINK-346641 64806U 25150S   26145.14391140  .00001089  00000+0  99042-4 0  99932 64806  70.0001 301.4937 0002598 275.1947  84.8915 14.98338747 47976

JSON: /api/v1/satellites/64806 · /tle

For live sub-satellite position, see the globe view (requires WebGL).

§ Visibility from observer

Set your observer location to see the next 7 days of passes ≥ 10°. The values pass through the URL so the page stays shareable.

No JS? Fill the form by hand. The geolocation button needs JavaScript.